EXS85D EGKK-LGKF

Flight info

Callsign EXS85D
Flight time N/A
Altitude 37000
Route ODVIK Y311 DVR UL9 KONAN DCT KOK UL607 REMBA DCT LIRSU DCT KRH DCT BATUB DCT TIRUL DCT NATAG DCT LORLO DCT KOPER DCT ASDOR DCT EVULI DCT TEA DCT EVINO DCT CRN DCT TOMGI DCT RUTOM M601 LASKO
Aircraft A21N/M-SDE2E3FGHIJ1RWXY/LB1

Departure

Time N/A
Airport London Gatwick Airport (EGKK)

Arrival

Time 2026-05-09 12:48
Airport Kefallinia Airport (LGKF)
Time Latitude Longitude Altitude Speed Heading
2026-05-09 12:19 38.81782 17.81792 37107 ft 513 kts 107°
2026-05-09 12:20 38.80704 17.86156 37105 ft 514 kts 107°
2026-05-09 12:20 38.78552 17.94883 37100 ft 513 kts 107°
2026-05-09 12:21 38.76398 18.03604 37097 ft 513 kts 108°
2026-05-09 12:21 38.74227 18.12321 37101 ft 514 kts 108°
2026-05-09 12:22 38.72058 18.21013 36884 ft 512 kts 108°
2026-05-09 12:22 38.69870 18.29719 36910 ft 516 kts 108°
2026-05-09 12:23 38.67658 18.38402 36635 ft 510 kts 108°
2026-05-09 12:23 38.66505 18.42671 36092 ft 507 kts 114°
2026-05-09 12:23 38.64976 18.46773 34950 ft 518 kts 119°
2026-05-09 12:23 38.63273 18.50935 34209 ft 528 kts 120°
2026-05-09 12:24 38.61596 18.55061 33830 ft 518 kts 119°
2026-05-09 12:24 38.59964 18.59145 33073 ft 513 kts 119°
2026-05-09 12:24 38.58356 18.63216 32302 ft 510 kts 118°
2026-05-09 12:24 38.56787 18.67216 31902 ft 498 kts 118°
2026-05-09 12:25 38.55236 18.71158 31341 ft 495 kts 118°
2026-05-09 12:25 38.53697 18.75062 30831 ft 489 kts 118°
2026-05-09 12:25 38.52174 18.78914 30248 ft 483 kts 118°
2026-05-09 12:25 38.50665 18.82721 29478 ft 479 kts 118°
2026-05-09 12:26 38.49170 18.86490 28773 ft 473 kts 118°
2026-05-09 12:26 38.47685 18.90220 28162 ft 469 kts 118°
2026-05-09 12:26 38.46211 18.93918 27573 ft 466 kts 118°
2026-05-09 12:26 38.44752 18.97577 27013 ft 462 kts 118°
2026-05-09 12:27 38.43299 19.01225 26476 ft 459 kts 118°
2026-05-09 12:27 38.41856 19.04843 25869 ft 456 kts 118°
2026-05-09 12:27 38.40430 19.08423 25186 ft 451 kts 118°
2026-05-09 12:27 38.39013 19.11977 24515 ft 447 kts 118°
2026-05-09 12:28 38.37608 19.15496 23807 ft 445 kts 118°
2026-05-09 12:28 38.36208 19.18996 23101 ft 441 kts 118°
2026-05-09 12:28 38.34822 19.22448 22429 ft 435 kts 118°
2026-05-09 12:28 38.33451 19.25852 21785 ft 430 kts 118°
2026-05-09 12:29 38.32095 19.29224 21293 ft 426 kts 117°
2026-05-09 12:29 38.30750 19.32563 20820 ft 422 kts 117°
2026-05-09 12:29 38.29430 19.35828 20357 ft 418 kts 117°
2026-05-09 12:29 38.28106 19.39114 19891 ft 415 kts 117°
2026-05-09 12:30 38.26797 19.42362 19412 ft 412 kts 117°
2026-05-09 12:30 38.25491 19.45590 18978 ft 408 kts 117°
2026-05-09 12:30 38.22907 19.51964 18006 ft 402 kts 116°
2026-05-09 12:31 38.21632 19.55112 17402 ft 398 kts 117°
2026-05-09 12:31 38.19116 19.61307 16230 ft 392 kts 117°
2026-05-09 12:31 38.17871 19.64370 15685 ft 388 kts 117°
2026-05-09 12:32 38.16639 19.67389 15201 ft 383 kts 117°
2026-05-09 12:32 38.15422 19.70375 14740 ft 378 kts 117°
2026-05-09 12:32 38.14224 19.73316 14307 ft 372 kts 117°
2026-05-09 12:32 38.13044 19.76207 13910 ft 366 kts 118°
2026-05-09 12:33 38.11881 19.79057 13517 ft 361 kts 118°
2026-05-09 12:33 38.10728 19.81872 13127 ft 358 kts 118°
2026-05-09 12:33 38.09588 19.84659 12750 ft 354 kts 118°
2026-05-09 12:33 38.08453 19.87422 12341 ft 351 kts 118°
2026-05-09 12:34 38.07332 19.90152 11968 ft 348 kts 118°
2026-05-09 12:34 38.06220 19.92861 11605 ft 344 kts 118°
2026-05-09 12:34 38.05119 19.95542 11243 ft 341 kts 118°
2026-05-09 12:34 38.04026 19.98204 10885 ft 338 kts 118°
2026-05-09 12:35 38.02947 20.00830 10535 ft 336 kts 118°
2026-05-09 12:35 38.01866 20.03451 10187 ft 333 kts 118°
2026-05-09 12:35 38.00797 20.06043 9852 ft 330 kts 118°
2026-05-09 12:35 37.99742 20.08615 9464 ft 327 kts 116°
2026-05-09 12:36 37.99061 20.11321 9119 ft 320 kts 92°
2026-05-09 12:36 37.99316 20.14049 8770 ft 308 kts 67°
2026-05-09 12:36 38.00124 20.16526 8446 ft 302 kts 62°
2026-05-09 12:36 38.00982 20.18940 8107 ft 299 kts 63°
2026-05-09 12:37 38.01797 20.21305 7794 ft 295 kts 63°
2026-05-09 12:37 38.02599 20.23694 7487 ft 292 kts 65°
2026-05-09 12:37 38.03118 20.26162 7152 ft 292 kts 85°
2026-05-09 12:37 38.02776 20.28678 6822 ft 291 kts 114°
2026-05-09 12:38 38.01575 20.30690 6496 ft 287 kts 141°
2026-05-09 12:38 38.00493 20.31695 6329 ft 282 kts 146°
2026-05-09 12:38 37.98950 20.33162 6160 ft 273 kts 140°
2026-05-09 12:38 37.97191 20.35320 5963 ft 258 kts 131°
2026-05-09 12:39 37.96091 20.37065 5699 ft 251 kts 125°
2026-05-09 12:39 37.95162 20.38891 5488 ft 241 kts 119°
2026-05-09 12:39 37.94411 20.40733 5312 ft 230 kts 114°
2026-05-09 12:39 37.93822 20.42570 5036 ft 221 kts 108°
2026-05-09 12:40 37.93378 20.44425 4666 ft 219 kts 104°
2026-05-09 12:40 37.93144 20.45698 4400 ft 219 kts 101°
2026-05-09 12:40 37.92903 20.47571 4049 ft 217 kts 96°
2026-05-09 12:40 37.92781 20.49453 3849 ft 205 kts 92°
2026-05-09 12:41 37.92771 20.51212 3580 ft 197 kts 87°
2026-05-09 12:41 37.92864 20.52932 3234 ft 194 kts 83°
2026-05-09 12:41 37.93047 20.54590 2991 ft 193 kts 79°
2026-05-09 12:41 37.93327 20.56246 2941 ft 192 kts 75°
2026-05-09 12:42 37.93702 20.57872 2967 ft 192 kts 71°
2026-05-09 12:42 37.94165 20.59455 2986 ft 192 kts 66°
2026-05-09 12:42 37.94720 20.60991 2991 ft 192 kts 62°
2026-05-09 12:42 37.95387 20.62431 2982 ft 182 kts 49°
2026-05-09 12:43 37.96401 20.63143 2942 ft 167 kts
2026-05-09 12:43 37.97465 20.62716 2732 ft 163 kts 323°
2026-05-09 12:43 37.98360 20.61832 2460 ft 164 kts 323°
2026-05-09 12:43 37.99288 20.60996 2169 ft 164 kts 326°
2026-05-09 12:44 38.00202 20.60205 2002 ft 147 kts 325°
2026-05-09 12:44 38.01021 20.59503 1978 ft 140 kts 325°
2026-05-09 12:44 38.01839 20.58800 1991 ft 146 kts 326°
2026-05-09 12:44 38.02684 20.58080 2002 ft 146 kts 325°
2026-05-09 12:45 38.03523 20.57356 1941 ft 145 kts 324°
2026-05-09 12:45 38.04349 20.56621 1744 ft 145 kts 325°
2026-05-09 12:45 38.05173 20.55888 1535 ft 144 kts 324°
2026-05-09 12:45 38.05994 20.55158 1344 ft 144 kts 324°
2026-05-09 12:46 38.06811 20.54425 1144 ft 144 kts 324°
2026-05-09 12:46 38.07649 20.53729 886 ft 144 kts 326°
2026-05-09 12:46 38.08500 20.53039 648 ft 145 kts 326°
2026-05-09 12:46 38.09334 20.52322 505 ft 145 kts 324°
2026-05-09 12:47 38.10167 20.51610 332 ft 144 kts 324°
2026-05-09 12:47 38.10993 20.50903 150 ft 143 kts 325°
2026-05-09 12:47 38.11811 20.50226 71 ft 132 kts 321°
2026-05-09 12:47 38.12363 20.49742 58 ft 56 kts 324°
2026-05-09 12:48 38.12467 20.49654 61 ft 0 kts 328°
2026-05-09 12:48 38.12510 20.49619 59 ft 19 kts 327°
2026-05-09 12:48 38.12640 20.49510 54 ft 23 kts 327°
2026-05-09 12:48 38.12776 20.49396 49 ft 24 kts 326°
2026-05-09 12:49 38.12845 20.49325 47 ft 3 kts 294°
2026-05-09 12:49 38.12863 20.49288 46 ft 9 kts 339°
2026-05-09 12:49 38.12830 20.49351 47 ft 14 kts 147°
2026-05-09 12:49 38.12714 20.49448 52 ft 26 kts 147°
2026-05-09 12:50 38.12549 20.49586 56 ft 29 kts 146°
2026-05-09 12:50 38.12377 20.49731 58 ft 21 kts 146°
2026-05-09 12:50 38.12266 20.49824 64 ft 20 kts 146°
2026-05-09 12:50 38.12144 20.49924 67 ft 22 kts 146°
2026-05-09 12:51 38.12012 20.50033 73 ft 24 kts 141°
2026-05-09 12:51 38.11904 20.50133 71 ft 9 kts 131°
2026-05-09 12:51 38.11893 20.50214 71 ft 11 kts 79°
2026-05-09 12:51 38.11899 20.50258 66 ft 4 kts 78°
2026-05-09 12:52 38.11892 20.50304 66 ft 7 kts 133°
2026-05-09 12:52 38.11840 20.50352 69 ft 11 kts 145°
2026-05-09 12:52 38.11821 20.50381 70 ft 1 kts 67°
2026-05-09 12:52 38.11828 20.50395 71 ft 3 kts 56°
2026-05-09 12:53 38.11844 20.50423 73 ft 5 kts 56°
2026-05-09 12:53 38.11850 20.50436 73 ft 0 kts 56°
2026-05-09 12:53 38.11853 20.50441 66 ft 0 kts 56°